TPD6 TDPD-TFFR

Flight info

Callsign TPD6
Flight time 0h 28m
Altitude 11000
Route OLAVI/N0297F100
Aircraft C700/M-SBDGHM1RWXY/LB2

Departure

Time 2026-04-29 17:16
Airport Douglas-Charles Airport (TDPD)

Arrival

Time 2026-04-29 17:44
Airport Maryse Condé International Airport (TFFR)
Time Latitude Longitude Altitude Speed Heading
2026-04-29 17:09 15.54573 -61.30121 39 ft 0 kts 150°
2026-04-29 17:12 15.54571 -61.30119 39 ft 1 kts 134°
2026-04-29 17:12 15.54574 -61.30079 37 ft 10 kts 67°
2026-04-29 17:12 15.54633 -61.30042 35 ft 8 kts 321°
2026-04-29 17:12 15.54663 -61.30069 36 ft 8 kts 317°
2026-04-29 17:13 15.54665 -61.30107 38 ft 4 kts 254°
2026-04-29 17:13 15.54645 -61.30175 41 ft 16 kts 252°
2026-04-29 17:13 15.54594 -61.30317 47 ft 26 kts 248°
2026-04-29 17:13 15.54523 -61.30519 55 ft 31 kts 250°
2026-04-29 17:14 15.54453 -61.30721 64 ft 29 kts 252°
2026-04-29 17:14 15.54411 -61.30888 71 ft 7 kts 241°
2026-04-29 17:14 15.54392 -61.30878 71 ft 4 kts 69°
2026-04-29 17:14 15.54397 -61.30869 71 ft 0 kts 68°
2026-04-29 17:15 15.54401 -61.30861 73 ft 6 kts 68°
2026-04-29 17:15 15.54519 -61.30526 56 ft 102 kts 70°
2026-04-29 17:16 15.54868 -61.29541 330 ft 172 kts 70°
2026-04-29 17:16 15.55325 -61.28295 1339 ft 205 kts 72°
2026-04-29 17:16 15.55865 -61.26699 1331 ft 244 kts 72°
2026-04-29 17:16 15.56466 -61.24931 1379 ft 290 kts 72°
2026-04-29 17:17 15.57155 -61.22911 1384 ft 286 kts 72°
2026-04-29 17:17 15.57776 -61.21012 1943 ft 268 kts 75°
2026-04-29 17:17 15.58267 -61.19229 2863 ft 253 kts 78°
2026-04-29 17:17 15.58984 -61.17524 3474 ft 270 kts 53°
2026-04-29 17:18 15.60368 -61.16251 5274 ft 266 kts 35°
2026-04-29 17:18 15.62147 -61.15740 6905 ft 276 kts
2026-04-29 17:18 15.64132 -61.16243 7567 ft 323 kts 336°
2026-04-29 17:18 15.66025 -61.17857 7596 ft 380 kts 309°
2026-04-29 17:19 15.67150 -61.20202 7577 ft 349 kts 285°
2026-04-29 17:19 15.67502 -61.22574 7580 ft 319 kts 274°
2026-04-29 17:19 15.67637 -61.24921 7578 ft 335 kts 272°
2026-04-29 17:19 15.67899 -61.27386 7586 ft 354 kts 279°
2026-04-29 17:20 15.68584 -61.29961 7588 ft 366 kts 292°
2026-04-29 17:20 15.69759 -61.32167 7579 ft 334 kts 304°
2026-04-29 17:20 15.71044 -61.34057 7569 ft 308 kts 306°
2026-04-29 17:20 15.72173 -61.35870 7573 ft 300 kts 300°
2026-04-29 17:21 15.73164 -61.37865 7580 ft 322 kts 296°
2026-04-29 17:21 15.74238 -61.39986 7586 ft 342 kts 299°
2026-04-29 17:21 15.75457 -61.42176 7581 ft 359 kts 301°
2026-04-29 17:21 15.76737 -61.44462 7564 ft 373 kts 300°
2026-04-29 17:22 15.78027 -61.46852 7561 ft 385 kts 299°
2026-04-29 17:22 15.79322 -61.49208 7551 ft 358 kts 301°
2026-04-29 17:22 15.80542 -61.51408 7539 ft 362 kts 298°
2026-04-29 17:22 15.81767 -61.53778 7535 ft 374 kts 298°
2026-04-29 17:23 15.83069 -61.56188 7535 ft 390 kts 301°
2026-04-29 17:23 15.84392 -61.58451 7531 ft 353 kts 302°
2026-04-29 17:23 15.85572 -61.60588 7524 ft 322 kts 299°
2026-04-29 17:23 15.86580 -61.62519 7534 ft 296 kts 299°
2026-04-29 17:24 15.87543 -61.64318 7529 ft 275 kts 300°
2026-04-29 17:24 15.88458 -61.65987 7532 ft 259 kts 300°
2026-04-29 17:24 15.89351 -61.67625 7534 ft 261 kts 300°
2026-04-29 17:24 15.90253 -61.69293 7535 ft 270 kts 300°
2026-04-29 17:25 15.91187 -61.71018 7548 ft 277 kts 300°
2026-04-29 17:25 15.92142 -61.72781 7557 ft 283 kts 300°
2026-04-29 17:25 15.93115 -61.74580 7558 ft 288 kts 300°
2026-04-29 17:25 15.94104 -61.76408 7558 ft 292 kts 300°
2026-04-29 17:26 15.95107 -61.78261 7558 ft 296 kts 300°
2026-04-29 17:26 15.96119 -61.80132 7551 ft 299 kts 300°
2026-04-29 17:26 15.97145 -61.82028 7555 ft 301 kts 300°
2026-04-29 17:26 15.98128 -61.83848 7534 ft 266 kts 300°
2026-04-29 17:27 15.98985 -61.85435 7544 ft 251 kts 300°
2026-04-29 17:27 15.99859 -61.87051 7553 ft 261 kts 300°
2026-04-29 17:27 16.00747 -61.88694 7555 ft 256 kts 300°
2026-04-29 17:27 16.01595 -61.90258 7531 ft 242 kts 301°
2026-04-29 17:28 16.02620 -61.91587 7536 ft 233 kts 320°
2026-04-29 17:28 16.03966 -61.92521 7541 ft 233 kts 337°
2026-04-29 17:28 16.05513 -61.93007 7532 ft 232 kts 354°
2026-04-29 17:28 16.07118 -61.93058 7548 ft 233 kts
2026-04-29 17:29 16.08816 -61.93050 7556 ft 257 kts
2026-04-29 17:29 16.10646 -61.93056 7555 ft 266 kts
2026-04-29 17:29 16.12496 -61.93060 7552 ft 266 kts
2026-04-29 17:29 16.13722 -61.93060 7549 ft 265 kts
2026-04-29 17:30 16.15565 -61.93059 7549 ft 265 kts
2026-04-29 17:30 16.17406 -61.93058 7549 ft 266 kts
2026-04-29 17:30 16.19344 -61.93056 7559 ft 292 kts
2026-04-29 17:30 16.21404 -61.93056 7553 ft 298 kts
2026-04-29 17:31 16.23486 -61.93056 7555 ft 300 kts
2026-04-29 17:31 16.25529 -61.92751 7604 ft 293 kts 17°
2026-04-29 17:31 16.27348 -61.91988 7600 ft 271 kts 30°
2026-04-29 17:31 16.28837 -61.90926 7596 ft 249 kts 43°
2026-04-29 17:32 16.30005 -61.89675 7468 ft 237 kts 54°
2026-04-29 17:32 16.30896 -61.88258 7207 ft 232 kts 62°
2026-04-29 17:32 16.31693 -61.86803 6912 ft 231 kts 62°
2026-04-29 17:32 16.32506 -61.85362 6617 ft 231 kts 62°
2026-04-29 17:33 16.33317 -61.83926 6305 ft 230 kts 62°
2026-04-29 17:33 16.34124 -61.82497 6004 ft 229 kts 62°
2026-04-29 17:33 16.34929 -61.81073 5708 ft 227 kts 62°
2026-04-29 17:33 16.35731 -61.79655 5399 ft 227 kts 62°
2026-04-29 17:34 16.36529 -61.78242 5099 ft 226 kts 62°
2026-04-29 17:34 16.37326 -61.76836 4806 ft 225 kts 63°
2026-04-29 17:34 16.38121 -61.75433 4499 ft 224 kts 63°
2026-04-29 17:34 16.38905 -61.74037 4210 ft 222 kts 62°
2026-04-29 17:35 16.40195 -61.71735 3734 ft 220 kts 62°
2026-04-29 17:35 16.41211 -61.69925 3613 ft 210 kts 62°
2026-04-29 17:35 16.41956 -61.68603 3602 ft 213 kts 63°
2026-04-29 17:36 16.42719 -61.67255 3616 ft 218 kts 62°
2026-04-29 17:36 16.43486 -61.65886 3612 ft 220 kts 62°
2026-04-29 17:36 16.44254 -61.64517 3607 ft 215 kts 62°
2026-04-29 17:36 16.44993 -61.63210 3598 ft 204 kts 63°
2026-04-29 17:37 16.45571 -61.61918 3591 ft 191 kts 75°
2026-04-29 17:37 16.46068 -61.60660 3602 ft 185 kts 66°
2026-04-29 17:37 16.46701 -61.59511 3598 ft 183 kts 64°
2026-04-29 17:37 16.47350 -61.58371 3583 ft 182 kts 70°
2026-04-29 17:38 16.47568 -61.57098 3601 ft 179 kts 95°
2026-04-29 17:38 16.47085 -61.55923 3613 ft 181 kts 135°
2026-04-29 17:38 16.45939 -61.55409 3622 ft 187 kts 174°
2026-04-29 17:38 16.44639 -61.55642 3608 ft 191 kts 191°
2026-04-29 17:39 16.43363 -61.55978 3623 ft 188 kts 189°
2026-04-29 17:39 16.42224 -61.56623 3532 ft 197 kts 235°
2026-04-29 17:39 16.41742 -61.57933 3616 ft 200 kts 261°
2026-04-29 17:39 16.41348 -61.59314 3626 ft 205 kts 244°
2026-04-29 17:40 16.41027 -61.60790 3618 ft 207 kts 261°
2026-04-29 17:40 16.40906 -61.62262 3609 ft 206 kts 262°
2026-04-29 17:40 16.40813 -61.63739 3612 ft 202 kts 264°
2026-04-29 17:40 16.40679 -61.65210 3595 ft 200 kts 254°
2026-04-29 17:41 16.39962 -61.66374 3605 ft 195 kts 213°
2026-04-29 17:41 16.38705 -61.66742 3613 ft 191 kts 172°
2026-04-29 17:41 16.37495 -61.66114 3621 ft 207 kts 133°
2026-04-29 17:41 16.36771 -61.64796 3623 ft 213 kts 120°
2026-04-29 17:42 16.35713 -61.63705 3619 ft 218 kts 148°
2026-04-29 17:42 16.34321 -61.63087 3628 ft 217 kts 156°
2026-04-29 17:42 16.33003 -61.62336 3606 ft 215 kts 137°
2026-04-29 17:42 16.32014 -61.61191 3540 ft 210 kts 127°
2026-04-29 17:43 16.31111 -61.59991 3166 ft 210 kts 122°
2026-04-29 17:43 16.30197 -61.58875 2701 ft 187 kts 146°
2026-04-29 17:43 16.29203 -61.58521 1969 ft 133 kts 167°
2026-04-29 17:43 16.28298 -61.58619 1567 ft 131 kts 178°
2026-04-29 17:44 16.27424 -61.58855 1597 ft 134 kts 202°
2026-04-29 17:44 16.26633 -61.59329 1682 ft 110 kts 210°
2026-04-29 17:44 16.26187 -61.59530 52 ft 13 kts 220°